Location: Iesi
(43.5167°N, 13.2333°E)
Time: 16:19:02
(UTC+00:00)

ISS - Visible Passes

Search period start: 27 October 2020 00:00
Search period end: 06 November 2020 00:00
Orbit: 417 x 420 km, 51.6° (Epoch: 27 October)

Date Brightness Start Highest point End Pass type
(mag) Time Alt. Az. Time Alt. Az. Time Alt. Az.
27 Oct -2.1 03:21:42 34° ENE 03:21:42 34° ENE 03:23:47 10° ENE visible
27 Oct -2.6 04:54:40 11° WNW 04:57:27 29° NNW 05:00:27 10° NE visible
28 Oct -3.0 04:09:06 35° NW 04:09:34 37° NNW 04:12:44 10° NE visible
29 Oct -1.7 03:23:27 24° NE 03:23:27 24° NE 03:25:02 10° NE visible
29 Oct -2.0 04:56:24 10° WNW 04:59:03 21° N 05:01:43 10° NE visible
30 Oct -2.3 04:10:41 23° NNW 04:11:05 24° NNW 04:13:54 10° NE visible
31 Oct -1.3 03:24:55 18° NNE 03:24:55 18° NNE 03:26:09 10° NE visible
31 Oct -1.9 04:58:06 10° NW 05:00:41 20° N 05:03:16 10° NE visible
01 Nov -1.9 04:12:04 19° NNW 04:12:42 20° N 04:15:17 10° NE visible
02 Nov -1.2 03:26:16 16° NNE 03:26:16 16° NNE 03:27:23 10° NE visible
02 Nov -2.0 04:59:28 10° NW 05:02:17 24° NNE 05:05:05 10° ENE visible
03 Nov -1.9 04:13:23 19° NNW 04:14:19 21° N 04:16:58 10° ENE visible
04 Nov -1.2 03:27:34 17° NNE 03:27:34 17° NNE 03:28:54 10° NE visible
04 Nov -2.6 05:00:37 10° NW 05:03:46 37° NNE 05:06:55 10° E visible
05 Nov -2.2 04:14:43 23° NNW 04:15:51 28° NNE 04:18:50 10° E visible
